Location: *
(51.0333°S, 178.4667°E)
Time: 18:06:08
(UTC+00:00)

CZ-4B DEB - Pass Details

Date: 15 November 2019
Orbit: 447 x 449 km, 97.4° (Epoch: 13 December)

Event Time Altitude Azimuth Distance (km) Brightness Sun altitude
Rises 10:20:25 0° 168° (SSE) 2,510 9.1 -17.7°
Reaches altitude 10° 10:22:29 10° 168° (SSE) 1,627 8.1 -17.9°
Maximum altitude 10:25:59 82° 256° (WSW) 473 4.4 -18.1°
Enters shadow 10:26:58 44° 336° (NNW) 647 4.8 -18.1°
